| time (UTC) | temp C | wind direction | speed KPH | gust KPH | rain 1hr cm | rain 24hr cm | rain mn cm | humidity % | barometer mb |
| 20260503203505 | 11 | 10 | 11.3 | 11.3 | 0.00 | 0.00 | 0.00 | 93 | 1010.8 |
| 20260503202007 | 11 | 10 | 11.3 | 11.3 | 0.00 | 0.00 | 0.00 | 93 | 1010.8 |
| 20260503200004 | 11 | 10 | 11.3 | 11.3 | 0.00 | 0.00 | 0.00 | 93 | 1010.8 |
| 20260503194008 | 11 | 350 | 11.3 | 11.3 | 0.00 | 0.00 | 0.00 | 100 | 1010.2 |
| 20260503191504 | 11 | 350 | 11.3 | 11.3 | 0.00 | 0.00 | 0.00 | 100 | 1010.2 |
| 20260503191007 | 11 | 350 | 11.3 | 11.3 | 0.00 | 0.00 | 0.00 | 100 | 1010.2 |
| 20260503190004 | 11 | 350 | 11.3 | 11.3 | 0.00 | 0.00 | 0.00 | 100 | 1010.2 |
| 20260503185504 | 11 | 10 | 9.7 | 9.7 | 0.00 | 0.00 | 0.00 | 100 | 1010.2 |
| 20260503185007 | 11 | 10 | 9.7 | 9.7 | 0.00 | 0.00 | 0.00 | 100 | 1010.2 |
| 20260503183007 | 11 | 10 | 9.7 | 9.7 | 0.00 | 0.00 | 0.00 | 100 | 1010.2 |
| 20260503182505 | 11 | 10 | 9.7 | 9.7 | 0.00 | 0.00 | 0.00 | 100 | 1010.2 |
| 20260503182007 | 11 | 10 | 9.7 | 9.7 | 0.00 | 0.00 | 0.00 | 100 | 1010.2 |
| 20260503175504 | 12 | 340 | 12.9 | 12.9 | 0.00 | 0.00 | 0.00 | 93 | 1009.1 |
| 20260503174504 | 12 | 340 | 12.9 | 12.9 | 0.00 | 0.00 | 0.00 | 93 | 1009.1 |
| 20260503173007 | 12 | 340 | 12.9 | 12.9 | 0.00 | 0.00 | 0.00 | 93 | 1009.1 |
| 20260503172504 | 12 | 340 | 12.9 | 12.9 | 0.00 | 0.00 | 0.00 | 93 | 1009.1 |
| 20260503171504 | 12 | 340 | 12.9 | 12.9 | 0.00 | 0.00 | 0.00 | 93 | 1009.1 |
| 20260503131007 | 13 | 240 | 22.5 | 22.5 | 0.00 | 0.00 | 0.00 | 82 | 1009.1 |
| 20260503110504 | 12 | 230 | 16.1 | 19.3 | 0.00 | 0.00 | 0.00 | 87 | 1008.1 |
| 20260503090504 | 12 | 250 | 22.5 | 22.5 | 0.00 | 0.00 | 0.00 | 93 | 1008.1 |
| 20260503081504 | 11 | 240 | 19.3 | 19.3 | 0.00 | 0.00 | 0.00 | 100 | 1008.1 |
| 20260503080503 | 11 | 240 | 19.3 | 19.3 | 0.00 | 0.00 | 0.00 | 100 | 1008.1 |
| 20260503072504 | 11 | 240 | 19.3 | 19.3 | 0.00 | 0.00 | 0.00 | 100 | 1008.1 |
| 20260503072007 | 11 | 240 | 19.3 | 19.3 | 0.00 | 0.00 | 0.00 | 100 | 1008.1 |
| 20260503071504 | 11 | 240 | 19.3 | 19.3 | 0.00 | 0.00 | 0.00 | 100 | 1008.1 |
| 20260503070504 | 11 | 240 | 19.3 | 19.3 | 0.00 | 0.00 | 0.00 | 100 | 1008.1 |
| 20260502210004 | 12 | 80 | 0.0 | 0.0 | 0.00 | 0.00 | 0.00 | 93 | 1011.9 |
| 20260502205504 | 12 | 80 | 0.0 | 0.0 | 0.00 | 0.00 | 0.00 | 87 | 1011.9 |
| 20260502204008 | 12 | 80 | 0.0 | 0.0 | 0.00 | 0.00 | 0.00 | 87 | 1011.9 |